User: anonymous   Login
Location: Montr�al
(45.5000°N, 73.5830°W)
Time: 19:33:47
(UTC-04:00)
Language:

Cosmos 2369 - Orbit

View from above orbital plane
View from above orbital plane
View from above satellite
View from above satellite

Ground track
Ground track

The orbit data is extracted from the following two-line orbital elements,

1 26069U 00006A   17112.94725711 -.00000020 +00000-0 +14762-4 0  9994
2 26069 070.9949 114.7860 0013572 308.0694 051.9203 14.13358233151660
Epoch (UTC): 22 April 2017 22:44:03
Eccentricity: 0.0013572
inclination: 70.9949°
perigee height: 838 km
apogee height: 858 km
right ascension of ascending node: 114.7860°
argument of perigee: 308.0694°
revolutions per day: 14.13358233
mean anomaly at epoch: 51.9203°
orbit number at epoch: 15166

The dashed part of the orbit path shows where the satellite is in the earth's shadow,  

DLR